User: anonymous   Login
Location: Oroua River
(40.4333°S, 175.4333°E)
Time: 18:08:42
(UTC+00:00)
Language:

ATLAS 5 CENTAUR R/B - Orbit

View from above orbital plane
View from above orbital plane
View from above satellite
View from above satellite

Ground track
Ground track

The orbit data is extracted from the following two-line orbital elements,

1 31702U 07027B   24109.99500363 0.00018791  00000-0  16585-2 0    06
2 31702  63.3269 109.3711 0522408  31.9898 327.9700 14.27742881    07
Epoch (UTC): 18 April 2024 23:52:48
Eccentricity: 0.0522408
inclination: 63.3269°
perigee height: 424 km
apogee height: 1174 km
right ascension of ascending node: 109.3711°
argument of perigee: 31.9898°
revolutions per day: 14.27742881
mean anomaly at epoch: 327.9700°
orbit number at epoch: 0

The dashed part of the orbit path shows where the satellite is in the earth's shadow,  

DLR